HELLAS-SAT 3

Last updated on Sun Jun 21 2026 00:03:07 GMT+0000 (Coordinated Universal Time)

1 42814U 17040A 26171.25717021 .00000147 00000+0 00000+0 0 9993 2 42814 0.0557 51.9435 0004753 3.8594 344.2326 1.00273106 32833
UTC large
Height (km)
Speed (km/s)
/
Latitude / Longitude
Inclination (degrees)
Orbital Period (minutes)
Azimuth
Elevation
Range (km)
Doppler Factor

Next 0 passes for location: London (51.5072 / 0.1276)

No passes found over London.
HELLAS-SAT 3